Time,TemperatureF,DewpointF,PressureIn,WindDirection,WindDirectionDegrees,WindSpeedMPH,WindSpeedGustMPH,Humidity,HourlyPrecipIn,Conditions,Clouds,dailyrainin,SoftwareType,DateUTC
2013-06-14 00:02:00,79.9,72.0,29.91,ENE,69,0.0,0.0,77,0.00,,,0.00,meteohub,2013-06-14 05:02:00,
2013-06-14 00:07:00,79.9,72.3,29.91,ENE,69,0.0,0.0,78,0.00,,,0.00,meteohub,2013-06-14 05:07:00,
2013-06-14 00:12:00,79.7,72.1,29.91,ENE,69,0.0,0.0,78,0.00,,,0.00,meteohub,2013-06-14 05:12:00,
2013-06-14 00:17:00,79.5,72.1,29.91,SW,226,0.0,0.0,78,0.00,,,0.00,meteohub,2013-06-14 05:17:00,
2013-06-14 00:23:00,79.5,72.5,29.91,SW,226,0.0,0.0,79,0.00,,,0.00,meteohub,2013-06-14 05:23:00,
2013-06-14 00:28:00,79.5,72.5,29.91,SW,226,0.0,0.0,79,0.00,,,0.00,meteohub,2013-06-14 05:28:00,
2013-06-14 00:33:00,79.3,72.3,29.91,SW,226,0.0,0.0,79,0.00,,,0.00,meteohub,2013-06-14 05:33:00,
2013-06-14 00:38:00,79.3,72.3,29.91,SW,226,0.0,0.0,79,0.00,,,0.00,meteohub,2013-06-14 05:38:00,
2013-06-14 00:43:00,79.3,72.3,29.91,SW,226,0.0,0.0,79,0.00,,,0.00,meteohub,2013-06-14 05:43:00,
2013-06-14 00:48:00,79.2,72.1,29.90,SW,226,0.0,0.0,79,0.00,,,0.00,meteohub,2013-06-14 05:48:00,
2013-06-14 00:53:00,79.2,72.1,29.90,SW,226,0.0,0.0,79,0.00,,,0.00,meteohub,2013-06-14 05:53:00,
2013-06-14 00:58:00,79.0,72.0,29.90,SW,226,0.0,0.0,79,0.00,,,0.00,meteohub,2013-06-14 05:58:00,
2013-06-14 01:03:00,78.8,72.1,29.90,SW,226,0.0,0.0,80,0.00,,,0.00,meteohub,2013-06-14 06:03:00,
2013-06-14 01:08:00,78.6,71.6,29.90,SW,226,0.0,0.0,79,0.00,,,0.00,meteohub,2013-06-14 06:08:00,
2013-06-14 01:13:00,78.6,72.0,29.90,SW,226,0.0,0.0,80,0.00,,,0.00,meteohub,2013-06-14 06:13:00,
2013-06-14 01:18:00,78.4,72.1,29.90,SW,226,0.0,0.0,81,0.00,,,0.00,meteohub,2013-06-14 06:18:00,
2013-06-14 01:23:00,78.4,72.1,29.90,SW,226,0.0,0.0,81,0.00,,,0.00,meteohub,2013-06-14 06:23:00,
2013-06-14 01:28:00,78.3,72.0,29.90,SW,226,0.0,0.0,81,0.00,,,0.00,meteohub,2013-06-14 06:28:00,
2013-06-14 01:33:00,78.3,72.0,29.90,SW,226,0.0,0.0,81,0.00,,,0.00,meteohub,2013-06-14 06:33:00,
2013-06-14 01:38:00,78.1,71.8,29.90,SW,226,0.0,0.0,81,0.00,,,0.00,meteohub,2013-06-14 06:38:00,
2013-06-14 01:43:00,78.1,72.1,29.90,SW,226,0.0,0.0,82,0.00,,,0.00,meteohub,2013-06-14 06:43:00,
2013-06-14 01:48:00,77.9,72.3,29.90,SW,226,0.0,0.0,83,0.00,,,0.00,meteohub,2013-06-14 06:48:00,
2013-06-14 01:53:00,77.7,72.1,29.90,SW,226,0.0,0.0,83,0.00,,,0.00,meteohub,2013-06-14 06:53:00,
2013-06-14 01:59:00,77.7,72.1,29.89,SW,226,0.0,0.0,83,0.00,,,0.00,meteohub,2013-06-14 06:59:00,
2013-06-14 02:04:00,77.7,72.5,29.89,SW,226,0.0,0.0,84,0.00,,,0.00,meteohub,2013-06-14 07:04:00,
2013-06-14 02:09:00,77.5,72.3,29.89,SW,226,0.0,0.0,84,0.00,,,0.00,meteohub,2013-06-14 07:09:00,
2013-06-14 02:14:00,77.5,72.3,29.89,SW,226,0.0,0.0,84,0.00,,,0.00,meteohub,2013-06-14 07:14:00,
2013-06-14 02:19:00,77.5,72.7,29.89,SW,226,0.0,0.0,85,0.00,,,0.00,meteohub,2013-06-14 07:19:00,
2013-06-14 02:24:00,77.4,72.5,29.89,SW,226,0.0,0.0,85,0.00,,,0.00,meteohub,2013-06-14 07:24:00,
2013-06-14 02:29:00,77.4,72.5,29.89,SW,226,0.0,0.0,85,0.00,,,0.00,meteohub,2013-06-14 07:29:00,
2013-06-14 02:34:00,77.2,72.3,29.89,SW,226,0.0,0.0,85,0.00,,,0.00,meteohub,2013-06-14 07:34:00,
2013-06-14 02:39:00,77.2,72.3,29.89,SW,226,0.0,0.0,85,0.00,,,0.00,meteohub,2013-06-14 07:39:00,
2013-06-14 02:44:00,77.0,72.1,29.89,SW,226,0.0,0.0,85,0.00,,,0.00,meteohub,2013-06-14 07:44:00,
2013-06-14 02:49:00,76.8,72.3,29.89,SW,226,0.0,0.0,86,0.00,,,0.00,meteohub,2013-06-14 07:49:00,
2013-06-14 02:54:00,76.8,72.3,29.89,SW,226,0.0,0.0,86,0.00,,,0.00,meteohub,2013-06-14 07:54:00,
2013-06-14 02:59:00,76.6,72.1,29.89,SW,226,0.0,0.0,86,0.00,,,0.00,meteohub,2013-06-14 07:59:00,
2013-06-14 03:04:00,76.6,72.1,29.88,SW,226,0.0,0.0,86,0.00,,,0.00,meteohub,2013-06-14 08:04:00,
2013-06-14 03:09:00,76.6,72.1,29.89,SSW,196,0.0,0.0,86,0.00,,,0.00,meteohub,2013-06-14 08:09:00,
2013-06-14 03:14:00,76.6,72.1,29.88,SSW,197,0.0,0.0,86,0.00,,,0.00,meteohub,2013-06-14 08:14:00,
2013-06-14 03:19:00,76.6,72.1,29.88,SSW,197,0.0,0.0,86,0.00,,,0.00,meteohub,2013-06-14 08:19:00,
2013-06-14 03:24:00,76.6,72.1,29.88,WSW,246,0.0,0.0,86,0.00,,,0.00,meteohub,2013-06-14 08:24:00,
2013-06-14 03:29:00,76.6,72.1,29.88,WSW,246,0.0,0.0,86,0.00,,,0.00,meteohub,2013-06-14 08:29:00,
2013-06-14 03:34:00,76.6,72.1,29.88,WSW,246,0.0,0.0,86,0.00,,,0.00,meteohub,2013-06-14 08:34:00,
2013-06-14 03:39:00,76.6,72.1,29.88,SW,236,0.0,0.0,86,0.00,,,0.00,meteohub,2013-06-14 08:39:00,
2013-06-14 03:44:00,76.6,72.5,29.88,SW,236,0.0,0.0,87,0.00,,,0.00,meteohub,2013-06-14 08:44:00,
2013-06-14 03:49:00,76.6,72.5,29.88,West,262,0.0,0.0,87,0.00,,,0.00,meteohub,2013-06-14 08:49:00,
2013-06-14 03:54:00,76.6,72.5,29.88,West,262,0.0,0.0,87,0.00,,,0.00,meteohub,2013-06-14 08:54:00,
2013-06-14 04:00:00,76.5,72.3,29.88,West,262,0.0,0.0,87,0.00,,,0.00,meteohub,2013-06-14 09:00:00,
2013-06-14 04:05:00,76.5,72.3,29.88,West,262,0.0,0.0,87,0.00,,,0.00,meteohub,2013-06-14 09:05:00,
2013-06-14 04:10:00,76.5,72.3,29.88,SSW,210,0.0,0.0,87,0.00,,,0.00,meteohub,2013-06-14 09:10:00,
2013-06-14 04:15:00,76.3,72.1,29.88,SW,232,0.0,0.0,87,0.00,,,0.00,meteohub,2013-06-14 09:15:00,
2013-06-14 04:20:00,76.3,72.1,29.89,SW,232,0.0,0.0,87,0.00,,,0.00,meteohub,2013-06-14 09:20:00,
2013-06-14 04:25:00,75.9,71.8,29.89,SW,232,0.0,0.0,87,0.00,,,0.00,meteohub,2013-06-14 09:25:00,
2013-06-14 04:30:00,75.9,71.8,29.89,SW,232,0.0,0.0,87,0.00,,,0.00,meteohub,2013-06-14 09:30:00,
2013-06-14 04:35:00,75.7,72.0,29.89,SW,232,0.0,0.0,88,0.00,,,0.00,meteohub,2013-06-14 09:35:00,
2013-06-14 04:40:00,75.7,72.3,29.89,SW,232,0.0,0.0,89,0.00,,,0.00,meteohub,2013-06-14 09:40:00,
2013-06-14 04:45:00,75.7,72.3,29.89,SW,232,0.0,0.0,89,0.00,,,0.00,meteohub,2013-06-14 09:45:00,
2013-06-14 04:50:00,75.6,72.1,29.89,SW,232,0.0,0.0,89,0.00,,,0.00,meteohub,2013-06-14 09:50:00,
2013-06-14 04:55:00,75.6,72.1,29.89,SW,232,0.0,0.0,89,0.00,,,0.00,meteohub,2013-06-14 09:55:00,
2013-06-14 05:00:00,75.6,72.1,29.89,SW,232,0.0,0.0,89,0.00,,,0.00,meteohub,2013-06-14 10:00:00,
2013-06-14 05:05:00,75.4,72.0,29.89,SW,232,0.0,0.0,89,0.00,,,0.00,meteohub,2013-06-14 10:05:00,
2013-06-14 05:10:00,75.4,72.0,29.89,SW,232,0.0,0.0,89,0.00,,,0.00,meteohub,2013-06-14 10:10:00,
2013-06-14 05:15:00,75.4,72.0,29.90,SW,232,0.0,0.0,89,0.00,,,0.00,meteohub,2013-06-14 10:15:00,
2013-06-14 05:20:00,75.2,72.1,29.90,SW,232,0.0,0.0,90,0.00,,,0.00,meteohub,2013-06-14 10:20:00,
2013-06-14 05:25:00,75.2,72.1,29.90,SW,232,0.0,0.0,90,0.00,,,0.00,meteohub,2013-06-14 10:25:00,
2013-06-14 05:30:00,75.0,72.0,29.91,SW,232,0.0,0.0,90,0.00,,,0.00,meteohub,2013-06-14 10:30:00,
2013-06-14 05:35:00,75.0,72.0,29.91,SW,232,0.0,0.0,90,0.00,,,0.00,meteohub,2013-06-14 10:35:00,
2013-06-14 05:40:00,74.8,71.8,29.91,SW,232,0.0,0.0,90,0.00,,,0.00,meteohub,2013-06-14 10:40:00,
2013-06-14 05:45:00,74.8,71.8,29.91,SW,232,0.0,0.0,90,0.00,,,0.00,meteohub,2013-06-14 10:45:00,
2013-06-14 05:51:00,74.8,71.8,29.91,SW,232,0.0,0.0,90,0.00,,,0.00,meteohub,2013-06-14 10:51:00,
2013-06-14 05:56:00,74.7,71.6,29.91,SW,232,1.0,1.0,90,0.00,,,0.00,meteohub,2013-06-14 10:56:00,
2013-06-14 06:01:00,74.7,71.8,29.91,SW,232,0.0,1.0,91,0.00,,,0.00,meteohub,2013-06-14 11:01:00,
2013-06-14 06:06:00,74.7,71.8,29.91,WSW,244,0.0,2.0,91,0.00,,,0.00,meteohub,2013-06-14 11:06:00,
2013-06-14 06:11:00,74.7,71.8,29.91,WSW,244,0.0,2.0,91,0.00,,,0.00,meteohub,2013-06-14 11:11:00,
2013-06-14 06:16:00,74.7,71.8,29.91,WSW,244,0.0,2.0,91,0.00,,,0.00,meteohub,2013-06-14 11:16:00,
2013-06-14 06:21:00,74.7,71.8,29.91,WSW,244,0.0,1.0,91,0.00,,,0.00,meteohub,2013-06-14 11:21:00,
2013-06-14 06:26:00,74.5,71.6,29.91,WSW,244,0.0,1.0,91,0.00,,,0.00,meteohub,2013-06-14 11:26:00,
2013-06-14 06:31:00,74.5,71.6,29.92,WSW,244,0.0,1.0,91,0.00,,,0.00,meteohub,2013-06-14 11:31:00,
2013-06-14 06:36:00,74.5,71.6,29.92,WSW,244,0.0,1.0,91,0.00,,,0.00,meteohub,2013-06-14 11:36:00,
2013-06-14 06:41:00,74.5,71.6,29.92,WSW,244,0.0,1.0,91,0.00,,,0.00,meteohub,2013-06-14 11:41:00,
2013-06-14 06:46:00,74.5,72.0,29.92,WSW,244,0.0,0.0,92,0.00,,,0.00,meteohub,2013-06-14 11:46:00,
2013-06-14 06:51:00,74.5,72.0,29.92,WSW,244,0.0,1.0,92,0.00,,,0.00,meteohub,2013-06-14 11:51:00,
2013-06-14 06:56:00,74.5,72.0,29.92,WSW,244,0.0,1.0,92,0.00,,,0.00,meteohub,2013-06-14 11:56:00,
2013-06-14 07:01:00,74.7,72.1,29.93,WSW,244,0.0,1.0,92,0.00,,,0.00,meteohub,2013-06-14 12:01:00,
2013-06-14 07:06:00,74.7,72.1,29.92,WSW,244,0.0,1.0,92,0.00,,,0.00,meteohub,2013-06-14 12:06:00,
2013-06-14 07:11:00,74.8,72.3,29.93,WSW,244,0.0,1.0,92,0.00,,,0.00,meteohub,2013-06-14 12:11:00,
2013-06-14 07:16:00,74.8,72.3,29.93,WSW,244,0.0,1.0,92,0.00,,,0.00,meteohub,2013-06-14 12:16:00,
2013-06-14 07:21:00,75.0,72.5,29.93,WSW,244,0.0,1.0,92,0.00,,,0.00,meteohub,2013-06-14 12:21:00,
2013-06-14 07:26:00,75.4,72.9,29.93,WSW,244,0.0,1.0,92,0.00,,,0.00,meteohub,2013-06-14 12:26:00,
2013-06-14 07:31:00,75.6,72.7,29.93,WSW,244,0.0,1.0,91,0.00,,,0.00,meteohub,2013-06-14 12:31:00,
2013-06-14 07:37:00,75.7,72.9,29.94,WSW,244,0.0,1.0,91,0.00,,,0.00,meteohub,2013-06-14 12:37:00,
2013-06-14 07:42:00,76.1,73.2,29.94,WSW,244,1.0,1.0,91,0.00,,,0.00,meteohub,2013-06-14 12:42:00,
2013-06-14 07:47:00,76.5,73.2,29.94,WSW,244,1.0,1.0,90,0.00,,,0.00,meteohub,2013-06-14 12:47:00,
2013-06-14 07:52:00,76.6,73.2,29.94,WSW,244,0.0,1.0,89,0.00,,,0.00,meteohub,2013-06-14 12:52:00,
2013-06-14 07:57:00,76.8,73.4,29.94,SW,224,0.0,2.0,89,0.00,,,0.00,meteohub,2013-06-14 12:57:00,
2013-06-14 08:02:00,77.4,73.9,29.94,SW,225,1.0,2.0,89,0.00,,,0.00,meteohub,2013-06-14 13:02:00,
2013-06-14 08:07:00,77.7,73.9,29.94,SW,228,0.0,3.0,88,0.00,,,0.00,meteohub,2013-06-14 13:07:00,
2013-06-14 08:12:00,78.3,74.5,29.94,West,259,0.0,3.0,88,0.00,,,0.00,meteohub,2013-06-14 13:12:00,
2013-06-14 08:17:00,79.0,74.5,29.94,SW,234,1.0,3.0,86,0.00,,,0.00,meteohub,2013-06-14 13:17:00,
2013-06-14 08:22:00,80.2,75.0,29.94,West,262,2.0,3.0,84,0.00,,,0.00,meteohub,2013-06-14 13:22:00,
2013-06-14 08:27:00,81.3,74.5,29.94,WSW,257,1.0,3.0,80,0.00,,,0.00,meteohub,2013-06-14 13:27:00,
2013-06-14 08:32:00,82.9,75.0,29.94,SW,226,0.0,3.0,77,0.00,,,0.00,meteohub,2013-06-14 13:32:00,
2013-06-14 08:37:00,84.4,75.2,29.94,WSW,247,2.0,4.0,74,0.00,,,0.00,meteohub,2013-06-14 13:37:00,
2013-06-14 08:42:00,85.5,75.7,29.94,SW,227,0.0,4.0,73,0.00,,,0.00,meteohub,2013-06-14 13:42:00,
2013-06-14 08:47:00,86.7,75.4,29.94,SW,225,1.0,4.0,69,0.00,,,0.00,meteohub,2013-06-14 13:47:00,
2013-06-14 08:52:00,88.0,75.6,29.94,WSW,250,1.0,3.0,67,0.00,,,0.00,meteohub,2013-06-14 13:52:00,
2013-06-14 08:57:00,88.9,75.6,29.94,West,269,2.0,3.0,65,0.00,,,0.00,meteohub,2013-06-14 13:57:00,
2013-06-14 09:02:00,89.6,74.8,29.95,NW,323,1.0,3.0,62,0.00,,,0.00,meteohub,2013-06-14 14:02:00,
2013-06-14 09:07:00,90.3,75.6,29.95,NW,323,0.0,3.0,62,0.00,,,0.00,meteohub,2013-06-14 14:07:00,
2013-06-14 09:12:00,90.7,75.4,29.95,NW,323,0.0,3.0,61,0.00,,,0.00,meteohub,2013-06-14 14:12:00,
2013-06-14 09:17:00,90.7,75.4,29.95,NW,323,1.0,3.0,61,0.00,,,0.00,meteohub,2013-06-14 14:17:00,
2013-06-14 09:22:00,90.7,75.4,29.95,NW,323,1.0,2.0,61,0.00,,,0.00,meteohub,2013-06-14 14:22:00,
2013-06-14 09:27:00,90.9,74.5,29.95,WNW,286,0.0,3.0,59,0.00,,,0.00,meteohub,2013-06-14 14:27:00,
2013-06-14 09:32:00,91.6,75.2,29.95,NNE,17,2.0,3.0,59,0.00,,,0.00,meteohub,2013-06-14 14:32:00,
2013-06-14 09:37:00,91.9,76.1,29.94,West,260,0.0,3.0,60,0.00,,,0.00,meteohub,2013-06-14 14:37:00,
2013-06-14 09:42:00,92.7,74.7,29.94,West,269,1.0,3.0,56,0.00,,,0.00,meteohub,2013-06-14 14:42:00,
2013-06-14 09:47:00,93.2,75.2,29.94,WNW,291,1.0,3.0,56,0.00,,,0.00,meteohub,2013-06-14 14:47:00,
2013-06-14 09:52:00,93.7,74.7,29.94,WNW,288,4.0,5.0,54,0.00,,,0.00,meteohub,2013-06-14 14:52:00,
2013-06-14 09:57:00,94.1,74.8,29.94,NW,306,1.0,5.0,54,0.00,,,0.00,meteohub,2013-06-14 14:57:00,
2013-06-14 10:03:00,94.3,75.6,29.94,NW,304,1.0,5.0,55,0.00,,,0.00,meteohub,2013-06-14 15:03:00,
2013-06-14 10:08:00,94.8,75.6,29.94,West,265,0.0,4.0,54,0.00,,,0.00,meteohub,2013-06-14 15:08:00,
2013-06-14 10:13:00,95.5,75.7,29.93,NW,312,0.0,4.0,53,0.00,,,0.00,meteohub,2013-06-14 15:13:00,
2013-06-14 10:18:00,96.1,75.0,29.93,NNW,347,0.0,4.0,51,0.00,,,0.00,meteohub,2013-06-14 15:18:00,
2013-06-14 10:23:00,95.2,75.9,29.93,North,350,1.0,4.0,54,0.00,,,0.00,meteohub,2013-06-14 15:23:00,
2013-06-14 10:28:00,94.8,76.1,29.93,WNW,292,1.0,4.0,55,0.00,,,0.00,meteohub,2013-06-14 15:28:00,
2013-06-14 10:33:00,95.2,75.4,29.93,West,271,1.0,4.0,53,0.00,,,0.00,meteohub,2013-06-14 15:33:00,
2013-06-14 10:38:00,95.5,75.7,29.93,West,269,1.0,5.0,53,0.00,,,0.00,meteohub,2013-06-14 15:38:00,
2013-06-14 10:43:00,95.7,76.5,29.93,NW,323,2.0,5.0,54,0.00,,,0.00,meteohub,2013-06-14 15:43:00,
2013-06-14 10:48:00,95.7,75.9,29.93,North,0,0.0,5.0,53,0.00,,,0.00,meteohub,2013-06-14 15:48:00,
2013-06-14 10:53:00,95.9,75.9,29.93,NNW,341,0.0,5.0,53,0.00,,,0.00,meteohub,2013-06-14 15:53:00,
2013-06-14 10:58:00,96.1,76.1,29.93,West,264,0.0,3.0,53,0.00,,,0.00,meteohub,2013-06-14 15:58:00,
2013-06-14 11:03:00,95.5,75.0,29.93,WNW,290,1.0,3.0,52,0.00,,,0.00,meteohub,2013-06-14 16:03:00,
2013-06-14 11:08:00,95.5,75.0,29.93,West,279,2.0,5.0,52,0.00,,,0.00,meteohub,2013-06-14 16:08:00,
2013-06-14 11:13:00,95.9,76.6,29.93,WSW,257,3.0,5.0,54,0.00,,,0.00,meteohub,2013-06-14 16:13:00,
2013-06-14 11:18:00,96.6,78.3,29.93,NW,311,0.0,3.0,56,0.00,,,0.00,meteohub,2013-06-14 16:18:00,
2013-06-14 11:23:00,97.2,75.9,29.93,WSW,257,0.0,5.0,51,0.00,,,0.00,meteohub,2013-06-14 16:23:00,
2013-06-14 11:28:00,97.2,76.6,29.93,NE,38,1.0,5.0,52,0.00,,,0.00,meteohub,2013-06-14 16:28:00,
2013-06-14 11:33:00,96.3,76.8,29.93,North,355,0.0,8.0,54,0.00,,,0.00,meteohub,2013-06-14 16:33:00,
2013-06-14 11:38:00,96.1,76.1,29.93,NE,48,0.0,8.0,53,0.00,,,0.00,meteohub,2013-06-14 16:38:00,
2013-06-14 11:43:00,95.5,75.7,29.93,NW,321,0.0,8.0,53,0.00,,,0.00,meteohub,2013-06-14 16:43:00,
2013-06-14 11:49:00,95.7,74.7,29.92,SSW,196,0.0,4.0,51,0.00,,,0.00,meteohub,2013-06-14 16:49:00,
2013-06-14 11:54:00,96.1,76.8,29.92,West,279,3.0,4.0,54,0.00,,,0.00,meteohub,2013-06-14 16:54:00,
2013-06-14 11:59:00,96.6,77.7,29.92,WNW,288,1.0,4.0,55,0.00,,,0.00,meteohub,2013-06-14 16:59:00,
2013-06-14 12:04:00,96.3,76.3,29.92,NE,35,1.0,3.0,53,0.00,,,0.00,meteohub,2013-06-14 17:04:00,
2013-06-14 12:09:00,95.2,75.4,29.92,NE,35,1.0,4.0,53,0.00,,,0.00,meteohub,2013-06-14 17:09:00,
2013-06-14 12:14:00,95.0,75.2,29.92,NE,42,1.0,4.0,53,0.00,,,0.00,meteohub,2013-06-14 17:14:00,
2013-06-14 12:19:00,95.2,76.5,29.92,South,182,0.0,4.0,55,0.00,,,0.00,meteohub,2013-06-14 17:19:00,
2013-06-14 12:24:00,95.2,77.0,29.92,WNW,293,2.0,4.0,56,0.00,,,0.00,meteohub,2013-06-14 17:24:00,
2013-06-14 12:29:00,95.9,75.4,29.92,North,0,2.0,4.0,52,0.00,,,0.00,meteohub,2013-06-14 17:29:00,
2013-06-14 12:34:00,95.7,75.2,29.92,NE,42,1.0,4.0,52,0.00,,,0.00,meteohub,2013-06-14 17:34:00,
2013-06-14 12:39:00,95.7,76.5,29.92,NNE,31,3.0,4.0,54,0.00,,,0.00,meteohub,2013-06-14 17:39:00,
2013-06-14 12:44:00,95.4,76.6,29.92,NNE,31,0.0,4.0,55,0.00,,,0.00,meteohub,2013-06-14 17:44:00,
2013-06-14 12:49:00,95.0,76.3,29.91,SE,135,1.0,4.0,55,0.00,,,0.00,meteohub,2013-06-14 17:49:00,
2013-06-14 12:54:00,95.5,75.7,29.91,WNW,286,1.0,4.0,53,0.00,,,0.00,meteohub,2013-06-14 17:54:00,
2013-06-14 12:59:00,96.6,76.1,29.91,SW,228,1.0,4.0,52,0.00,,,0.00,meteohub,2013-06-14 17:59:00,
2013-06-14 13:04:00,97.0,78.1,29.91,NE,40,1.0,4.0,55,0.00,,,0.00,meteohub,2013-06-14 18:04:00,
2013-06-14 13:09:00,96.8,76.8,29.91,NW,317,0.0,4.0,53,0.00,,,0.00,meteohub,2013-06-14 18:09:00,
2013-06-14 13:14:00,96.3,74.7,29.91,NW,309,0.0,4.0,50,0.00,,,0.00,meteohub,2013-06-14 18:14:00,
2013-06-14 13:19:00,96.1,75.6,29.91,NW,309,0.0,3.0,52,0.00,,,0.00,meteohub,2013-06-14 18:19:00,
2013-06-14 13:24:00,96.4,75.4,29.91,SSW,202,1.0,2.0,51,0.00,,,0.00,meteohub,2013-06-14 18:24:00,
2013-06-14 13:29:00,96.6,77.2,29.91,SW,220,1.0,3.0,54,0.00,,,0.00,meteohub,2013-06-14 18:29:00,
2013-06-14 13:34:00,96.6,75.6,29.91,SSW,211,2.0,3.0,51,0.00,,,0.00,meteohub,2013-06-14 18:34:00,
2013-06-14 13:39:00,97.0,75.2,29.91,SW,224,0.0,4.0,50,0.00,,,0.00,meteohub,2013-06-14 18:39:00,
2013-06-14 13:45:00,97.5,77.5,29.91,SW,229,0.0,4.0,53,0.00,,,0.00,meteohub,2013-06-14 18:45:00,
2013-06-14 13:50:00,98.1,78.6,29.91,SE,128,1.0,4.0,54,0.00,,,0.00,meteohub,2013-06-14 18:50:00,
2013-06-14 13:55:00,97.3,77.4,29.91,ENE,57,2.0,3.0,53,0.00,,,0.00,meteohub,2013-06-14 18:55:00,
2013-06-14 14:00:00,97.0,77.5,29.91,NNE,24,3.0,4.0,54,0.00,,,0.00,meteohub,2013-06-14 19:00:00,
2013-06-14 14:05:00,96.4,75.9,29.91,NE,40,2.0,4.0,52,0.00,,,0.00,meteohub,2013-06-14 19:05:00,
2013-06-14 14:10:00,96.1,77.4,29.90,SE,144,1.0,5.0,55,0.00,,,0.00,meteohub,2013-06-14 19:10:00,
2013-06-14 14:15:00,96.3,77.5,29.90,ESE,119,3.0,6.0,55,0.00,,,0.00,meteohub,2013-06-14 19:15:00,
2013-06-14 14:20:00,96.3,75.7,29.90,ESE,104,1.0,6.0,52,0.00,,,0.00,meteohub,2013-06-14 19:20:00,
2013-06-14 14:25:00,96.4,75.9,29.90,SSE,155,0.0,5.0,52,0.00,,,0.00,meteohub,2013-06-14 19:25:00,
2013-06-14 14:30:00,97.0,75.2,29.90,SSE,154,1.0,5.0,50,0.00,,,0.00,meteohub,2013-06-14 19:30:00,
2013-06-14 14:35:00,97.2,75.4,29.89,ENE,68,1.0,4.0,50,0.00,,,0.00,meteohub,2013-06-14 19:35:00,
2013-06-14 14:40:00,96.3,75.7,29.89,NE,40,1.0,3.0,52,0.00,,,0.00,meteohub,2013-06-14 19:40:00,
2013-06-14 14:45:00,95.9,77.2,29.89,ESE,112,0.0,3.0,55,0.00,,,0.00,meteohub,2013-06-14 19:45:00,
2013-06-14 14:50:00,96.3,76.3,29.89,ESE,111,0.0,3.0,53,0.00,,,0.00,meteohub,2013-06-14 19:50:00,
2013-06-14 14:55:00,96.4,75.9,29.89,SSE,158,0.0,3.0,52,0.00,,,0.00,meteohub,2013-06-14 19:55:00,
2013-06-14 15:00:00,97.0,76.5,29.88,SE,136,1.0,3.0,52,0.00,,,0.00,meteohub,2013-06-14 20:00:00,
2013-06-14 15:05:00,97.3,76.1,29.89,SE,129,0.0,4.0,51,0.00,,,0.00,meteohub,2013-06-14 20:05:00,
2013-06-14 15:11:00,97.9,76.1,29.88,SE,145,0.0,4.0,50,0.00,,,0.00,meteohub,2013-06-14 20:11:00,
2013-06-14 15:16:00,98.4,76.6,29.88,WSW,239,1.0,4.0,50,0.00,,,0.00,meteohub,2013-06-14 20:16:00,
2013-06-14 15:21:00,99.0,74.5,29.88,ESE,103,1.0,3.0,46,0.00,,,0.00,meteohub,2013-06-14 20:21:00,
2013-06-14 15:26:00,99.0,77.0,29.88,ESE,103,0.0,3.0,50,0.00,,,0.00,meteohub,2013-06-14 20:26:00,
2013-06-14 15:32:00,98.8,75.0,29.88,ESE,103,1.0,3.0,47,0.00,,,0.00,meteohub,2013-06-14 20:32:00,
2013-06-14 15:37:00,98.1,76.3,29.88,East,100,0.0,2.0,50,0.00,,,0.00,meteohub,2013-06-14 20:37:00,
2013-06-14 15:42:00,97.7,78.3,29.88,East,98,0.0,2.0,54,0.00,,,0.00,meteohub,2013-06-14 20:42:00,
2013-06-14 15:47:00,97.0,76.5,29.88,East,98,0.0,2.0,52,0.00,,,0.00,meteohub,2013-06-14 20:47:00,
2013-06-14 15:52:00,96.4,77.5,29.88,East,98,0.0,2.0,55,0.00,,,0.00,meteohub,2013-06-14 20:52:00,
2013-06-14 15:57:00,95.7,76.5,29.87,East,98,0.0,2.0,54,0.00,,,0.00,meteohub,2013-06-14 20:57:00,
2013-06-14 16:02:00,95.4,76.1,29.87,East,98,0.0,2.0,54,0.00,,,0.00,meteohub,2013-06-14 21:02:00,
2013-06-14 16:07:00,94.6,78.6,29.87,East,98,0.0,1.0,60,0.00,,,0.00,meteohub,2013-06-14 21:07:00,
2013-06-14 16:12:00,94.5,78.4,29.87,East,98,0.0,1.0,60,0.00,,,0.00,meteohub,2013-06-14 21:12:00,
2013-06-14 16:17:00,94.5,79.9,29.87,East,98,0.0,2.0,63,0.00,,,0.00,meteohub,2013-06-14 21:17:00,
2013-06-14 16:22:00,94.6,79.5,29.87,East,98,0.0,2.0,62,0.00,,,0.00,meteohub,2013-06-14 21:22:00,
2013-06-14 16:27:00,94.6,78.1,29.86,East,98,0.0,1.0,59,0.00,,,0.00,meteohub,2013-06-14 21:27:00,
2013-06-14 16:33:00,94.6,78.1,29.87,East,98,0.0,1.0,59,0.00,,,0.00,meteohub,2013-06-14 21:33:00,
2013-06-14 16:38:00,94.6,79.2,29.86,East,98,0.0,1.0,61,0.00,,,0.00,meteohub,2013-06-14 21:38:00,
2013-06-14 16:43:00,95.0,80.4,29.86,East,98,0.0,1.0,63,0.00,,,0.00,meteohub,2013-06-14 21:43:00,
2013-06-14 16:48:00,95.4,77.2,29.86,East,98,0.0,1.0,56,0.00,,,0.00,meteohub,2013-06-14 21:48:00,
2013-06-14 16:53:00,96.3,78.1,29.86,SSW,209,1.0,1.0,56,0.00,,,0.00,meteohub,2013-06-14 21:53:00,
2013-06-14 16:58:00,97.3,77.4,29.86,WSW,247,0.0,2.0,53,0.00,,,0.00,meteohub,2013-06-14 21:58:00,
2013-06-14 17:03:00,98.2,77.0,29.86,WSW,248,0.0,3.0,51,0.00,,,0.00,meteohub,2013-06-14 22:03:00,
2013-06-14 17:09:00,98.8,75.7,29.86,South,181,0.0,3.0,48,0.00,,,0.00,meteohub,2013-06-14 22:09:00,
2013-06-14 17:14:00,99.3,77.4,29.86,WSW,248,0.0,3.0,50,0.00,,,0.00,meteohub,2013-06-14 22:14:00,
2013-06-14 17:19:00,99.7,75.9,29.86,WSW,248,1.0,3.0,47,0.00,,,0.00,meteohub,2013-06-14 22:19:00,
2013-06-14 17:24:00,100.0,77.4,29.86,WSW,248,0.0,3.0,49,0.00,,,0.00,meteohub,2013-06-14 22:24:00,
2013-06-14 17:29:00,100.6,78.6,29.85,WSW,248,0.0,3.0,50,0.00,,,0.00,meteohub,2013-06-14 22:29:00,
2013-06-14 17:34:00,100.8,78.6,29.85,SE,146,1.0,2.0,50,0.00,,,0.00,meteohub,2013-06-14 22:34:00,
2013-06-14 17:39:00,99.9,76.6,29.84,SE,125,0.0,3.0,48,0.00,,,0.00,meteohub,2013-06-14 22:39:00,
2013-06-14 17:44:00,99.0,76.5,29.84,East,86,1.0,3.0,49,0.00,,,0.00,meteohub,2013-06-14 22:44:00,
2013-06-14 17:49:00,98.1,77.4,29.84,ENE,67,1.0,3.0,52,0.00,,,0.00,meteohub,2013-06-14 22:49:00,
2013-06-14 17:54:00,96.6,77.2,29.84,ENE,63,0.0,3.0,54,0.00,,,0.00,meteohub,2013-06-14 22:54:00,
2013-06-14 17:59:00,95.7,77.5,29.84,ENE,63,2.0,3.0,56,0.00,,,0.00,meteohub,2013-06-14 22:59:00,
2013-06-14 18:04:00,95.2,77.5,29.84,ENE,63,0.0,3.0,57,0.00,,,0.00,meteohub,2013-06-14 23:04:00,
2013-06-14 18:09:00,94.6,77.5,29.83,ENE,63,0.0,3.0,58,0.00,,,0.00,meteohub,2013-06-14 23:09:00,
2013-06-14 18:14:00,93.9,79.0,29.84,ENE,63,0.0,2.0,62,0.00,,,0.00,meteohub,2013-06-14 23:14:00,
2013-06-14 18:19:00,93.6,78.6,29.84,ENE,63,0.0,1.0,62,0.00,,,0.00,meteohub,2013-06-14 23:19:00,
2013-06-14 18:24:00,93.6,78.6,29.83,ENE,57,3.0,3.0,62,0.00,,,0.00,meteohub,2013-06-14 23:24:00,
2013-06-14 18:29:00,93.0,78.6,29.84,NE,56,0.0,3.0,63,0.00,,,0.00,meteohub,2013-06-14 23:29:00,
2013-06-14 18:34:00,92.8,78.4,29.83,NE,56,0.0,4.0,63,0.00,,,0.00,meteohub,2013-06-14 23:34:00,
2013-06-14 18:39:00,92.8,79.9,29.83,NE,56,0.0,4.0,66,0.00,,,0.00,meteohub,2013-06-14 23:39:00,
2013-06-14 18:44:00,93.0,78.6,29.83,NE,56,0.0,3.0,63,0.00,,,0.00,meteohub,2013-06-14 23:44:00,
2013-06-14 18:49:00,93.0,78.6,29.84,NE,56,0.0,1.0,63,0.00,,,0.00,meteohub,2013-06-14 23:49:00,
2013-06-14 18:55:00,93.4,80.2,29.84,NE,56,0.0,1.0,66,0.00,,,0.00,meteohub,2013-06-14 23:55:00,
2013-06-14 19:00:00,93.0,77.5,29.84,NE,56,0.0,1.0,61,0.00,,,0.00,meteohub,2013-06-15 00:00:00,
2013-06-14 19:05:00,92.8,77.9,29.84,NE,56,0.0,0.0,62,0.00,,,0.00,meteohub,2013-06-15 00:05:00,
2013-06-14 19:10:00,92.8,79.9,29.84,NE,56,0.0,1.0,66,0.00,,,0.00,meteohub,2013-06-15 00:10:00,
2013-06-14 19:15:00,92.3,79.3,29.84,NE,56,0.0,1.0,66,0.00,,,0.00,meteohub,2013-06-15 00:15:00,
2013-06-14 19:20:00,91.9,79.0,29.84,NE,56,0.0,1.0,66,0.00,,,0.00,meteohub,2013-06-15 00:20:00,
2013-06-14 19:25:00,91.9,79.0,29.84,NE,56,0.0,2.0,66,0.00,,,0.00,meteohub,2013-06-15 00:25:00,
2013-06-14 19:30:00,91.8,79.2,29.84,NE,56,0.0,2.0,67,0.00,,,0.00,meteohub,2013-06-15 00:30:00,
2013-06-14 19:35:00,91.8,78.8,29.84,NE,56,0.0,1.0,66,0.00,,,0.00,meteohub,2013-06-15 00:35:00,
2013-06-14 19:40:00,91.6,79.0,29.84,NE,56,0.0,1.0,67,0.00,,,0.00,meteohub,2013-06-15 00:40:00,
2013-06-14 19:45:00,91.6,80.8,29.84,NE,56,0.0,1.0,71,0.00,,,0.00,meteohub,2013-06-15 00:45:00,
2013-06-14 19:50:00,91.2,79.7,29.85,NE,56,0.0,1.0,69,0.00,,,0.00,meteohub,2013-06-15 00:50:00,
2013-06-14 19:55:00,90.9,78.8,29.85,NE,56,0.0,2.0,68,0.00,,,0.00,meteohub,2013-06-15 00:55:00,
2013-06-14 20:00:00,90.9,78.8,29.85,NE,56,0.0,2.0,68,0.00,,,0.00,meteohub,2013-06-15 01:00:00,
2013-06-14 20:05:00,90.7,79.2,29.85,NE,56,0.0,2.0,69,0.00,,,0.00,meteohub,2013-06-15 01:05:00,
2013-06-14 20:10:00,90.5,79.0,29.85,NE,56,0.0,1.0,69,0.00,,,0.00,meteohub,2013-06-15 01:10:00,
2013-06-14 20:15:00,90.3,79.7,29.84,NE,56,0.0,1.0,71,0.00,,,0.00,meteohub,2013-06-15 01:15:00,
2013-06-14 20:20:00,90.1,79.9,29.84,NE,56,0.0,1.0,72,0.00,,,0.00,meteohub,2013-06-15 01:20:00,
2013-06-14 20:26:00,90.0,79.3,29.85,NE,56,0.0,0.0,71,0.00,,,0.00,meteohub,2013-06-15 01:26:00,
2013-06-14 20:31:00,89.4,79.2,29.85,NE,56,0.0,0.0,72,0.00,,,0.00,meteohub,2013-06-15 01:31:00,
2013-06-14 20:36:00,89.1,79.7,29.85,NE,56,0.0,0.0,74,0.00,,,0.00,meteohub,2013-06-15 01:36:00,
2013-06-14 20:41:00,88.5,78.3,29.85,NE,56,0.0,0.0,72,0.00,,,0.00,meteohub,2013-06-15 01:41:00,
2013-06-14 20:46:00,88.3,79.0,29.86,NE,56,0.0,1.0,74,0.00,,,0.00,meteohub,2013-06-15 01:46:00,
2013-06-14 20:51:00,88.0,78.6,29.86,NE,56,0.0,2.0,74,0.00,,,0.00,meteohub,2013-06-15 01:51:00,
2013-06-14 20:56:00,87.6,78.3,29.86,NE,56,0.0,2.0,74,0.00,,,0.00,meteohub,2013-06-15 01:56:00,
2013-06-14 21:01:00,87.6,79.2,29.86,NE,56,0.0,2.0,76,0.00,,,0.00,meteohub,2013-06-15 02:01:00,
2013-06-14 21:06:00,87.4,78.6,29.86,NE,56,0.0,1.0,75,0.00,,,0.00,meteohub,2013-06-15 02:06:00,
2013-06-14 21:11:00,87.3,78.4,29.87,SE,139,0.0,0.0,75,0.00,,,0.00,meteohub,2013-06-15 02:11:00,
2013-06-14 21:16:00,87.1,77.7,29.86,ESE,117,0.0,3.0,74,0.00,,,0.00,meteohub,2013-06-15 02:16:00,
2013-06-14 21:21:00,86.9,77.5,29.87,SE,132,4.0,4.0,74,0.00,,,0.00,meteohub,2013-06-15 02:21:00,
2013-06-14 21:26:00,86.7,77.0,29.87,SE,138,1.0,4.0,73,0.00,,,0.00,meteohub,2013-06-15 02:26:00,
2013-06-14 21:31:00,86.7,77.0,29.87,SE,138,0.0,4.0,73,0.00,,,0.00,meteohub,2013-06-15 02:31:00,
2013-06-14 21:37:00,86.5,77.2,29.87,SE,138,0.0,4.0,74,0.00,,,0.00,meteohub,2013-06-15 02:37:00,
2013-06-14 21:42:00,86.5,77.2,29.87,SE,138,1.0,2.0,74,0.00,,,0.00,meteohub,2013-06-15 02:42:00,
2013-06-14 21:47:00,86.4,77.5,29.87,SE,138,0.0,2.0,75,0.00,,,0.00,meteohub,2013-06-15 02:47:00,
2013-06-14 21:52:00,86.4,77.5,29.87,SE,138,0.0,2.0,75,0.00,,,0.00,meteohub,2013-06-15 02:52:00,
2013-06-14 21:57:00,86.2,77.4,29.88,SE,138,0.0,2.0,75,0.00,,,0.00,meteohub,2013-06-15 02:57:00,
2013-06-14 22:02:00,86.0,77.2,29.88,SE,138,0.0,1.0,75,0.00,,,0.00,meteohub,2013-06-15 03:02:00,
2013-06-14 22:07:00,85.8,77.0,29.88,SE,138,0.0,1.0,75,0.00,,,0.00,meteohub,2013-06-15 03:07:00,
2013-06-14 22:12:00,85.6,77.9,29.88,SE,138,0.0,1.0,78,0.00,,,0.00,meteohub,2013-06-15 03:12:00,
2013-06-14 22:17:00,85.5,77.7,29.88,SE,138,0.0,1.0,78,0.00,,,0.00,meteohub,2013-06-15 03:17:00,
2013-06-14 22:22:00,85.1,77.5,29.89,SE,138,1.0,1.0,78,0.00,,,0.00,meteohub,2013-06-15 03:22:00,
2013-06-14 22:27:00,84.9,77.4,29.88,SE,138,0.0,1.0,78,0.00,,,0.00,meteohub,2013-06-15 03:27:00,
2013-06-14 22:32:00,84.7,77.2,29.89,East,94,0.0,1.0,78,0.00,,,0.00,meteohub,2013-06-15 03:32:00,
2013-06-14 22:37:00,84.7,77.5,29.88,East,94,0.0,2.0,79,0.00,,,0.00,meteohub,2013-06-15 03:37:00,
2013-06-14 22:42:00,84.7,77.2,29.89,East,94,0.0,2.0,78,0.00,,,0.00,meteohub,2013-06-15 03:42:00,
2013-06-14 22:47:00,84.7,77.9,29.89,East,94,1.0,2.0,80,0.00,,,0.00,meteohub,2013-06-15 03:47:00,
2013-06-14 22:52:00,84.6,77.7,29.89,East,94,1.0,1.0,80,0.00,,,0.00,meteohub,2013-06-15 03:52:00,
2013-06-14 22:57:00,84.4,77.5,29.89,East,94,1.0,2.0,80,0.00,,,0.00,meteohub,2013-06-15 03:57:00,
2013-06-14 23:01:00,84.4,77.5,29.89,East,94,0.0,2.0,80,0.00,,,0.00,meteohub,2013-06-15 04:01:00,
2013-06-14 23:02:00,84.4,77.5,29.89,East,94,0.0,2.0,80,0.00,,,0.00,meteohub,2013-06-15 04:02:00,
2013-06-14 23:07:00,84.4,77.5,29.89,East,94,0.0,2.0,80,0.00,,,0.00,meteohub,2013-06-15 04:07:00,
2013-06-14 23:12:00,84.4,77.5,29.89,East,94,0.0,2.0,80,0.00,,,0.00,meteohub,2013-06-15 04:12:00,
2013-06-14 23:17:00,84.2,77.4,29.89,East,94,0.0,2.0,80,0.00,,,0.00,meteohub,2013-06-15 04:17:00,
2013-06-14 23:22:00,84.0,77.2,29.89,North,9,0.0,2.0,80,0.00,,,0.00,meteohub,2013-06-15 04:22:00,
2013-06-14 23:27:00,83.8,77.4,29.89,North,9,1.0,4.0,81,0.00,,,0.00,meteohub,2013-06-15 04:27:00,
2013-06-14 23:32:00,83.8,77.4,29.89,North,9,0.0,4.0,81,0.00,,,0.00,meteohub,2013-06-15 04:32:00,
2013-06-14 23:37:00,83.7,77.2,29.90,North,9,0.0,4.0,81,0.00,,,0.00,meteohub,2013-06-15 04:37:00,
2013-06-14 23:42:00,83.7,77.5,29.90,North,9,0.0,1.0,82,0.00,,,0.00,meteohub,2013-06-15 04:42:00,
2013-06-14 23:47:00,83.5,77.4,29.91,ENE,67,0.0,3.0,82,0.00,,,0.00,meteohub,2013-06-15 04:47:00,
2013-06-14 23:52:00,83.3,77.2,29.91,East,94,0.0,3.0,82,0.00,,,0.00,meteohub,2013-06-15 04:52:00,
2013-06-14 23:57:00,83.3,77.5,29.91,SSE,149,0.0,3.0,83,0.00,,,0.00,meteohub,2013-06-15 04:57:00,